sat.trackr.live / text

‹ back to catalog

STARLINK-34206

NORAD 66098 · 2025-236N

PAYLOAD ACTIVE UNKNOWN

§ Identity

Operator
Country
US
Launch date
2025-10-19
Launch site
AFWTR
Launch vehicle
Mass (kg)
RCS (m²)

Purposes: comms

External: N2YO · Heavens-Above · Gunter

§ Orbital elements

Epoch: 2026-09-20T06:07:53.186880Z

Period
93.85 min
Inclination
53.1575°
Eccentricity
0.0001021
Mean motion
15.34420034 rev/d
Perigee alt
461.9 km
Apogee alt
463.3 km
Semi-major
6,840.8 km
B*
3.8485e-4
RAAN
276.5782°
Arg perigee
79.4923°
Mean anomaly
280.6195°
Rev number
5,277

§ Raw data

STARLINK-342061 66098U 25236N   26263.25547670  .00012657  00000+0  38485-3 0  99932 66098  53.1575 276.5782 0001021  79.4923 280.6195 15.34420034 52770

JSON: /api/v1/satellites/66098 · /tle

For live sub-satellite position, see the globe view (requires WebGL).

§ Visibility from observer

Set your observer location to see the next 7 days of passes ≥ 10°. The values pass through the URL so the page stays shareable.

No JS? Fill the form by hand. The geolocation button needs JavaScript.